Submittal Forms
Current Contests
Recent Contests

Club Activity Tracker - Tennessee Contest Group (from club selection on form)

Recent postings for the selected club or group are listed below. Other than the call used, all calls listed are only those associated with the club or group. Click on a call to see the details of the posting.
Status Key: new=new posting, update=update prior posting, move=change club/group, delete=delete prior posting.

Sort by   for past

TimestampCallContestClassPowerScoreStatus
2021-05-15 02:54:40W4CMGKRC SSTSingle OpLP130new6426
2021-05-14 16:26:24KA4OTBArQPSOMixedLP276new6413
2021-05-14 03:03:36K1GUNCCC SprintSingle OpLP1,470new6425
2021-05-13 04:35:59NS4XCWopsTSingle OpHP8,058new6421
2021-05-13 04:18:54W4UTCWopsTSingle OpHP3,720new6421
2021-05-13 04:16:07W4SSFCWopsTAcademy Single OpLP2,444new6421
2021-05-13 04:05:43AF4TCWopsTSingle OpLP2,809new6421
2021-05-13 04:03:04WF7TCWopsTSingle OpLP5,244new6421
2021-05-13 04:02:24N8UMCWopsTSingle OpHP16,492new6421
2021-05-13 04:01:52K4ROCWopsTSingle OpHP38,280new6421
 
2021-05-13 04:01:43K1GUCWopsTSingle OpHP12,100new6421
2021-05-13 04:01:40AG4CCCWopsTSingle OpQRP900new6421
2021-05-13 04:01:24AD4EBCWopsTSingle OpLP27,280new6421
2021-05-13 03:35:37WD4CFNCWopsTSingle OpLP441new6421
2021-05-13 02:55:49WD4CFNCWopsTSingle OpLP121new6420
2021-05-12 22:21:08K4DXVCWopsTSingle OpLP81new6419
2021-05-12 20:06:54W4SSFCWopsTAcademy Single OpLP2,025new6420
2021-05-12 20:05:06NS4XCWopsTSingle OpHP7,052new6420
2021-05-12 20:03:58K4ROCWopsTSingle OpHP39,480new6420
2021-05-12 20:03:19K1GUCWopsTSingle OpHP16,129new6420
 
2021-05-12 20:02:56K4KOCWopsTSingle OpLP1,936new6420
2021-05-12 20:02:15AG4CCCWopsTSingle OpQRP870new6420
2021-05-12 20:02:08N8UMCWopsTSingle OpHP11,021new6420
2021-05-12 20:01:14AD4EBCWopsTSingle OpLP16,380new6420
2021-05-12 19:57:42K0EJCWopsTSingle OpLP4,225new6420
2021-05-12 16:58:07NS4XCWopsTSingle OpHP5,256new6419
2021-05-12 15:34:59AF4TCWopsTSingle OpLP2,916new6419
2021-05-12 14:42:28AC6ZMCWopsTSingle OpHP10,200new6419
2021-05-12 14:05:36K1GUCWopsTSingle OpHP10,201new6419
2021-05-12 14:02:24N8UMCWopsTSingle OpHP14,884new6419
 
2021-05-12 14:02:20W4SSFCWopsTAcademy Single OpLP2,304new6419
2021-05-12 14:02:01AG4CCCWopsTSingle OpQRP484new6419
2021-05-12 14:01:54AD4EBCWopsTSingle OpLP26,553new6419
2021-05-12 14:01:06K4ROCWopsTSingle OpHP44,091new6419
2021-05-12 13:41:08WD4CFNCWopsTSingle OpLP169new6419
2021-05-12 13:32:45W3TBCWopsTSingle OpLP1,296new6419
2021-05-11 22:33:31AB4GG7QPSOMixedHP4,080new6394
2021-05-11 14:33:44AD4EBCQ-MSOABCWHP77,314new6412
2021-05-10 14:46:14W4SSFVolta RTTYSOABLP5,228,832new6411
2021-05-10 14:22:12W4SSFCQ-MSOABCWLP495new6412
 
2021-05-10 01:35:25W4CMGKRC SSTSingle OpLP108new6415
2021-05-10 00:16:22WN8YVolta RTTYSOABLP500,400new6411
2021-05-09 23:31:59WA4JAArQPSOSSBLP156new6413
2021-05-09 23:00:33AI4DBArQPSOSSBLP424update6413
2021-05-09 22:53:46AJ6T50SprngSprntSingle OpLP360new6414
2021-05-09 21:42:48AA4DDVolta RTTYSOABHP16,183,314new6411
2021-05-09 20:56:51K4DXVArQPSOMixedLP91new6413
2021-05-09 20:52:34K4DXVCQ-MSOABCWLP261new6412
2021-05-09 20:34:14AC6ZMCQ-MSOABCWHP32,280new6412
2021-05-09 14:56:18N8UMCQ-MSOABCWHP67,608new6412
 
2021-05-09 14:36:36K3IECQ-MSOABCWHP83,304new6412
2021-05-09 13:27:07K4AMCArQPSOCWLP3,472new6413
2021-05-09 12:57:31W4SSFArQPSOMixedLP812update6413
2021-05-09 12:11:23AF4TCQ-MSOABCWLP270new6412
2021-05-09 12:10:10AF4TVolta RTTYSOAB-6LP872,784new6411
2021-05-09 06:05:19W4UTArQPSOMixedLP850new6413
2021-05-09 05:02:44NS4XVolta RTTYSOABHP25,475,610new6411
2021-05-09 04:59:34NS4XArQPSOMixedHP120new6413
2021-05-09 04:56:14NS4XCQ-MSOABCWHP8,140new6412
2021-05-09 02:18:09K4DRArQPSOMixedLP1,874new6413
 
2021-05-07 01:05:12KE0LInQPSingle OpLP24new6395
2021-05-07 01:03:47KE0LNewEngQPSingle OpLP200new6397
2021-05-07 01:02:09KE0L7QPSO(A)CWLP3,480new6394
2021-05-06 12:16:30AF4TCWopsTSingle OpHP2,304new6404
2021-05-06 04:11:09W4SSFCWopsTAcademy Single OpLP2,304new6404
2021-05-06 04:08:52W4CMGCWopsTSingle OpLP56new6404
2021-05-06 04:02:36AG4CCCWopsTSingle OpQRP256new6404
2021-05-06 04:01:35AD4EBCWopsTSingle OpLP22,680new6404
2021-05-06 04:01:22AC6ZMCWopsTSingle OpHP7,569new6404
2021-05-06 04:01:06K4ROCWopsTSingle OpHP39,420new6404
 
2021-05-06 03:49:17WD4CFNCWopsTSingle OpLP900new6404
2021-05-06 03:18:01K1GUCWopsTSingle OpHP729new6404
2021-05-05 20:50:53K0EJCWopsTSingle OpHP32,550new6403
2021-05-05 20:21:49W4SSFCWopsTAcademy Single OpLP2,401new6403
2021-05-05 20:15:21W4UTCWopsTSingle OpHP6,375new6403
2021-05-05 20:13:41K1GUCWopsTSingle OpHP7,744new6403
2021-05-05 20:07:26AD4EBCWopsTSingle OpLP25,092new6403
2021-05-05 20:02:29AG4CCCWopsTSingle OpQRP600new6403
2021-05-05 20:02:04K4ROCWopsTSingle OpHP39,480new6403
2021-05-05 19:43:55WD4CFNCWopsTSingle OpLP400new6403
 
2021-05-05 14:48:39W4SSFCWopsTAcademy Single OpLP1,892new6402
2021-05-05 14:04:19AD4EBCWopsTSingle OpLP30,227new6402
2021-05-05 14:03:49N4ZZCWopsTSingle OpLP28,560new6402
2021-05-05 14:00:58K4ROCWopsTSingle OpHP36,036new6402
2021-05-05 13:59:53WD4CFNCWopsTSingle OpLP256new6402
2021-05-05 13:35:58K1GUCWopsTSingle OpHP1,936new6402
2021-05-05 13:30:49AG4CCCWopsTSingle OpQRP100new6402
2021-05-05 13:19:43K4KOCWopsTSingle OpLP841new6402
2021-05-04 14:03:38WA4JAInQPSingle OpLP238new6395
2021-05-04 00:44:57WN8Y7QPSO(A)DigLP8new6394
 
2021-05-03 22:08:29AA4DDNewEngQPSingle OpHP5,328new6397
2021-05-03 21:53:20AA4DD7QPSOMixedHP2,783new6394
2021-05-03 20:37:48N4ARO7QPSO(A)MixedLP13,462new6394
2021-05-03 18:03:59AA4DDARISO MixedHP61,766new6393
2021-05-03 17:30:14NG4VNewEngQPSingle OpLP962update6397
2021-05-03 16:15:37NG4V7QPSO(A)SSBLP1,728new6394
2021-05-03 15:23:54AD4EBNewEngQPSingle OpLP17,700new6397
2021-05-03 15:05:39AD4EBDeQPSingle OpLP1,560new6396
2021-05-03 14:29:59K4AMCInQPSingle OpLP1,920new6395
2021-05-03 14:27:17K4AMCNewEngQPSingle OpLP22,154new6397
 
2021-05-03 14:24:01K4AMCDeQPSingle OpLP1,600new6396
2021-05-03 14:21:18K4AMC7QPSOCWLP23,730new6394
2021-05-03 13:16:09N4ARONewEngQPSingle OpLP17,496new6397
2021-05-03 10:03:53WN8YARISO RTTYLP1,386new6393
2021-05-03 04:34:34WF7TNewEngQPSingle OpLP6,513new6397
2021-05-03 02:50:57AC6ZMInQPSingle OpHP208new6395
2021-05-03 02:48:48AC6ZMDeQPSingle OpHP600new6396
2021-05-03 02:46:34AC6ZMNewEngQPSingle OpHP22,360new6397
2021-05-03 02:43:07AC6ZM7QPSO(A)CWHP30,552new6394
2021-05-03 02:34:17AF4TARISO CWHP48new6393
 
2021-05-03 02:25:37AF4TDeQPSingle OpHP180new6396
2021-05-03 02:18:31AF4TNewEngQPSingle OpHP6,580new6397
2021-05-03 01:22:29WF7TInQPSingle OpLP128new6395
2021-05-03 01:19:45WF7TDeQPSingle OpLP1new6396
2021-05-03 01:16:50WF7T7QPSO(A)MixedLP22,081new6394
2021-05-03 01:03:57W4CMGKRC SSTSingle OpLP195new6398
2021-05-03 00:36:14W4NZNewEngQPSingle OpHP12,096new6397
2021-05-03 00:35:09K4DRDeQPSingle OpLP900update6396
2021-05-03 00:33:36K1GUNewEngQPSingle OpHP28,674new6397
2021-05-03 00:33:06W4NZ7QPSOCWHP10,902new6394
 
2021-05-03 00:26:54K4DRNewEngQPSingle OpLP15,134new6397
2021-05-03 00:12:47W4SSFDeQPSingle OpLP12new6396
2021-05-02 23:57:14W4SSFNewEngQPSingle OpLP16,280new6397
2021-05-02 23:56:59W6UBNewEngQPSingle OpLP1,840new6397
2021-05-02 23:10:07W4BCGARISO RTTYHP450new6393
2021-05-02 23:04:52WB5WAJNewEngQPSingle OpLP1,040new6397
2021-05-02 23:02:05WB5WAJInQPSingle OpHP170new6395
2021-05-02 23:01:55W4BCG7QPSOCWHP200new6394
2021-05-02 22:57:56WB5WAJ7QPSOMixedHP6,816new6394
2021-05-02 22:39:00K0EJNewEngQPSingle OpLP9,845new6397
 
2021-05-02 22:12:21W4CMGNewEngQPSingle OpLP330new6397
2021-05-02 16:49:13NS4XInQPSingle OpHP1,012new6395
2021-05-02 16:47:02NS4XNewEngQPSingle OpHP10,234new6397
2021-05-02 16:44:48NS4XDeQPSingle OpHP550new6396
2021-05-02 16:40:43NS4X7QPSO(A)MixedHP26,718new6394
2021-05-02 13:18:31W4KW7QPSO(A)SSBHP77,440new6394
2021-05-02 12:48:21W6UB7QPSO(A)CWLP2,838new6394
2021-05-02 12:43:34W4SSF7QPSO(A)MixedLP5,117new6394
2021-05-02 11:07:15AF4TInQPSingle OpHP144new6395
2021-05-02 11:03:44AF4T7QPSO(A)CWHP9,954new6394
 
2021-05-02 10:46:43W4SSFInQPSingle OpLP1,323new6395
2021-05-02 04:27:11W4CMG7QPSO(A)CWLP1,710new6394
2021-05-02 03:14:31K4DR7QPSOMixedLP6,468new6394
2021-05-02 03:08:09K4DRInQPSingle OpLP576new6395
2021-05-01 23:07:45K0EJARISO CWHP46,092new6393
2021-04-30 21:08:10AF4TKRC SSTSingle OpLP25new6391
2021-04-30 21:03:50W4CMGKRC SSTSingle OpLP120new6391
2021-04-29 11:40:05W4SSFCWopsTAcademy Single OpLP2,116new6386
2021-04-29 05:35:17AF4TCWopsTSingle OpHP3,721new6386
2021-04-29 04:04:06AC6ZMCWopsTSingle OpHP9,999new6386
 
2021-04-29 04:03:23K1GUCWopsTSingle OpHP9,409new6386
2021-04-29 04:03:21W4CMGCWopsTSingle OpLP64new6386
2021-04-29 04:02:34AG4CCCWopsTSingle OpLP575new6386
2021-04-29 04:01:37AD4EBCWopsTSingle OpLP21,783new6386
2021-04-29 02:28:47AF4TCWopsTSingle OpHP1,225new6384
2021-04-29 01:27:10AD4EBFlQPSO MobileCWLP932,960update6375
2021-04-28 21:17:03K0EJCWopsTSingle OpLP11,655new6385
2021-04-28 20:19:10W4UTCWopsTSingle OpHP4,032new6385
2021-04-28 20:14:32W4CMGCWopsTSingle OpLP121new6385
2021-04-28 20:08:11AC6ZMCWopsTSingle OpHP7,052new6385
 
2021-04-28 20:04:26W4SSFCWopsTAcademy Single OpLP1,225new6385
2021-04-28 20:02:36AG4CCCWopsTSingle OpQRP361new6385
2021-04-28 20:02:00K1GUCWopsTSingle OpLP8,281new6385
2021-04-28 20:01:53AD4EBCWopsTSingle OpLP15,982new6385
2021-04-28 19:45:10WD4CFNCWopsTSingle OpLP225new6385
2021-04-28 14:31:54W4SSFCWopsTAcademy Single OpLP2,500new6384
2021-04-28 14:10:55AD4EBCWopsTSingle OpLP22,496new6384
2021-04-28 14:06:43K4ROCWopsTSingle OpHP32,200new6384
2021-04-28 14:02:20AG4CCCWopsTSingle OpQRP400new6384
2021-04-28 13:32:14K1GUCWopsTSingle OpHP2,500new6384
 
2021-04-28 13:31:25WD4CFNCWopsTSingle OpLP196new6384
2021-04-28 13:18:51K4KOCWopsTSingle OpLP484new6384
2021-04-27 16:39:23AC6ZMFlQPSOAB(A)CWHP31,948update6375
2021-04-26 18:39:27KA4OTBFlQPSOABMixedHP4,180new6375
2021-04-26 18:06:14K4AMCFlQPSOABCWLP45,472new6375
2021-04-26 16:26:33WA4JAFlQPSOABMixedLP1,386new6375
2021-04-26 16:09:32NG4VFlQPSOAB(A)SSBLP2,800new6375
2021-04-26 15:05:45K1GUFlQPSOABCWHP19,332new6375
2021-04-26 13:02:06W4NZFlQPSOAB(A)CWHP24,708new6375
2021-04-26 12:51:46AF4TFlQPSOAB(A)CWHP2,646new6375
 
2021-04-26 12:50:59N4AROFlQPSOAB(A)MixedLP47,576update6375
2021-04-26 12:49:38K4DZRFlQPSOAB(A)MixedLP10,640update6375
2021-04-26 12:49:25AF4TSPDX RTTYSOABHP102new6372
2021-04-26 02:25:41WN8YSPDX RTTYSOABLP6,528new6372
2021-04-26 02:11:38K3IEHelvetiaSO CWHP4,472new6373
2021-04-26 02:01:02AA4DDSPDX RTTYSOABHP321,030new6372
2021-04-26 00:53:44K4ROFlQPSOABCWLP18,156new6375
2021-04-26 00:51:05K3IEFlQPSOAB(A)CWHP48,768new6375
2021-04-26 00:47:37KE0LFlQPSOAB(A)CWLP19,200new6375
2021-04-26 00:25:11WN8YFlQPSOABSSBLP144new6375
 
2021-04-26 00:17:58W4SSFSPDX RTTYSOABLP22new6372
2021-04-26 00:01:06AC4GFlQPSOABCWLP20,640new6375
2021-04-25 23:29:11AA4DDFlQPSOABCWHP4,488new6375
2021-04-25 23:14:34W4BCGFlQPSOABCWHP714new6375
2021-04-25 23:08:34N4DWMiQPSingle OpLP640new6357
2021-04-25 23:05:32N4DWOnQPSO CWLP4,416new5642
2021-04-25 23:03:35W6UBFlQPSOAB(A)CWHP5,180new6375
2021-04-25 22:54:44W4UTFlQPSOABMixedLP7,776new6375
2021-04-25 22:52:54N4DWFlQPSOAB(A)CWHP12,870new6375
2021-04-25 22:48:47K4DXVFlQPSOABMixedLP6,204new6375
 
2021-04-25 22:45:27W4XKFlQPSOAB(A)CWLP19,968new6375
2021-04-25 22:40:22W4CMGFlQPSOABCWLP2,812new6375
2021-04-25 22:30:42K4KOFlQPSOABCWLP7,316new6375
2021-04-25 22:24:51W4SSFFlQPSOAB(A)MixedLP27,342new6375
2021-04-25 22:24:45AI4DBFlQPSOABSSBLP3,240new6375
2021-04-25 22:13:21K4DRFlQPSOABMixedLP30,030new6375
2021-04-25 22:03:23W0AGFlQPSOABCWLP8,208new6375
2021-04-25 21:34:08K0EJFlQPSOABCWLP13,760new6375
2021-04-25 20:49:18NS4XFlQPSOAB(A)MixedHP12,626new6375
2021-04-25 20:44:13NS4XBARTG 75Single OpHP456new6374
 
2021-04-25 20:35:02W3TBFlQPSOABCWLP17,004new6375
2021-04-25 19:25:19W4KWFlQPSOAB(A)SSBHP4,028new6375
2021-04-25 14:30:30W6UBHelvetiaSO CWHP2,067new6373
2021-04-25 12:25:31WB5WAJFlQPSOABSSBHP286new6375
2021-04-24 03:06:03W4NZOnQPSO CWHP1,110new5642
2021-04-24 02:09:17W4NZCQMM DXSOABHP10,584new6356
2021-04-23 03:11:28W4NZNCCC SprintSingle OpLP1,110new6370
2021-04-22 13:56:10AF4TCWopsTSingle OpHP3,600new6366
2021-04-22 10:17:01N8UMCWopsTSingle OpHP17,424new6366
2021-04-22 04:24:51AC6ZMCWopsTSingle OpLP10,000new6366
 
2021-04-22 04:20:49W4SSFCWopsTAcademy Single OpLP1,716new6366
2021-04-22 04:07:50W4CMGCWopsTSingle OpLP49new6366
2021-04-22 04:01:25AG4CCCWopsTSingle OpQRP441new6366
2021-04-22 03:32:44K1GUCWopsTSingle OpHP2,025new6366
2021-04-21 20:27:57W4UTCWopsTSingle OpHP3,600new6365
2021-04-21 20:16:52W4SSFCWopsTAcademy Single OpLP1,681new6365
2021-04-21 20:02:35K3IECWopsTSingle OpHP1,024new6365
2021-04-21 20:01:44N8UMCWopsTSingle OpHP12,210new6365
2021-04-21 20:01:43AG4CCCWopsTSingle OpQRP729new6365
2021-04-21 19:34:37WD4CFNCWopsTSingle OpLP169new6365
 
2021-04-21 19:32:35K1GUCWopsTSingle OpHP4,096new6365
2021-04-21 14:37:57AF4TCWopsTSingle OpHP2,209new6364
2021-04-21 14:24:35WD4CFNCWopsTSingle OpLP256new6364
2021-04-21 14:03:37W4SSFCWopsTAcademy Single OpLP2,652new6364
2021-04-21 14:02:17K4KOCWopsTSingle OpLP3,364new6364
2021-04-21 14:01:48AG4CCCWopsTSingle OpQRP900new6364
2021-04-21 14:01:28N8UMCWopsTSingle OpHP14,400new6364
2021-04-21 13:57:04AC6ZMCWopsTSingle OpLP3,721new6364
2021-04-21 13:48:07K1GUCWopsTSingle OpHP3,364new6364
2021-04-20 00:56:28WA4JAMiQPSingle OpLP442new6357
 
2021-04-20 00:52:49WA4JAOnQPSO SSBLP270new5642
2021-04-19 14:17:04AF4TCQMM DXSOABHP58,581update6356
2021-04-19 13:18:15K4ROCQMM DXSOABHP175,747new6356
2021-04-19 02:59:23K4DXVMiQPSingle OpLP8new6357
2021-04-19 02:56:36K4DXVOnQPSO CWLP170new5642
2021-04-19 02:38:07W4CMGCQMM DXYLLP1,030new6356
2021-04-19 02:35:45W4BCGOnQPSO CWHP192update5642
2021-04-19 02:26:33KA4OTBMiQPSingle OpHP408new6357
2021-04-19 01:56:27AF4TOnQPSO CWHP1,276new5642
2021-04-19 01:45:29AB4GGMiQPSingle OpLP1,885new6357
 
2021-04-19 01:39:48KE0LCQMM DXSOSB/40LP14new6356
2021-04-19 01:36:37KE0LMiQPSingle OpLP144new6357
2021-04-19 01:35:08AC6ZMHolyland DXSO CWHP32new6352
2021-04-19 01:32:25AC6ZMOnQPSO CWLP648new5642
2021-04-19 01:30:42KE0LOnQPSO MixedLP6,080new5642
2021-04-19 01:23:14AC6ZM(@NJ4P)CQMM DXSOSB/20LP108,205new6356
2021-04-19 01:06:10W4CMGKRC SSTSingle OpLP224new6358
2021-04-19 01:02:28K3IECQMM DXSOABHP240,543new6356
2021-04-19 00:23:10W4SSFCQMM DXSOABLP5,032new6356
2021-04-19 00:17:00K4DXVCQMM DXSOABLP2,431new6356
 
2021-04-19 00:13:10W6UBCQMM DXSOSB/20HP2,337new6356
2021-04-19 00:10:26W3TBMiQPSingle OpHP1,178new6357
2021-04-19 00:07:39W3TBOnQPSO CWHP2,064new5642
2021-04-18 23:41:49K1GUCQMM DXSOABHP43,734new6356
2021-04-18 23:30:45WB5WAJOnQPSO SSBHP429new5642
2021-04-18 23:24:27AD4EBCQMM DXSOABHP90,552new6356
2021-04-18 22:15:17AA4DDMiQPSingle OpHP1,292new6357
2021-04-18 21:46:27AA4DDOnQPSO CWHP2,808new5642
2021-04-18 21:40:39NS4XCQMM DXSOABHP52,026new6356
2021-04-18 20:57:20K1GUOnQPSO SSBLP6,560new5642
 
2021-04-18 20:43:45K0EJCQMM DXSOABHP53,562new6356
2021-04-18 20:33:08AB4GGOnQPSO MixedLP4,032new5642
2021-04-18 20:19:17W4BCGCQMM DXSOABHP96new6356
2021-04-18 19:29:28NS4XMiQPSingle OpHP42new6357
2021-04-18 19:26:48NS4XOnQPSO MixedHP2,418new5642
2021-04-18 19:24:17K3IEOnQPSO CWHP12,430new5642
2021-04-18 18:27:01K4DROnQPSO MixedLP3,250new5642
2021-04-18 18:11:50KA4OTBOnQPSO MixedHP585new5642
2021-04-18 17:23:50W4SSFOnQPSO MixedLP7,020new5642
2021-04-18 14:32:31W0AGOnQPSO CWLP3,132new5642
 
2021-04-18 13:13:27K4AMCMiQPSingle OpLP3,528new6357
2021-04-18 12:43:01WB5WAJMiQPSingle OpHP651new6357
2021-04-18 11:48:13W4SSFMiQPSingle OpLP2,250new6357
2021-04-18 01:25:52K4DRMiQPSingle OpLP527new6357
2021-04-17 20:37:44AJ6TGagarin DXSOSB/40LP240new6338
2021-04-16 03:03:25K1GUNCCC SprintSingle OpLP1,440new6350
2021-04-16 00:02:11AB4GGGaQPSingle OpMixedLP405new6336
2021-04-15 23:56:02AB4GGNDQPOut of StateLP72new6337
2021-04-15 23:49:13AB4GGNeQPOut of StateLP84new6334
2021-04-15 23:40:04AB4GGNMQPSingle OpLP144new6335
 
2021-04-15 16:19:06AC6ZMNeQPOut of StateHP14new6334
2021-04-15 15:56:10AC6ZMNMQPSingle OpHP704new6335
2021-04-15 15:49:36AC6ZMGaQPSingle OpMixedHP3,040new6336
2021-04-15 15:41:12AC6ZMNDQPOut of StateHP1new6337
2021-04-15 15:33:36AC6ZMCWopsTSingle OpLP3,969new6346
2021-04-15 05:32:53AF4TCWopsTSingle OpHP4,356new6347
2021-04-15 05:31:43AF4TCWopsTSingle OpHP3,600new6345
2021-04-15 04:10:26WD4CFNCWopsTSingle OpLP3,364new6347
2021-04-15 04:07:15W4SSFCWopsTAcademy Single OpLP3,540new6347
2021-04-15 04:06:42AC6ZMCWopsTSingle OpLP5,183new6347
 
2021-04-15 04:06:06W4CMGCWopsTSingle OpLP36new6347
2021-04-15 04:02:54AG4CCCWopsTSingle OpQRP529new6347
2021-04-15 04:02:40K3IECWopsTSingle OpHP8,820new6347
2021-04-15 04:02:32K1GUCWopsTSingle OpHP13,924new6347
2021-04-15 04:01:35AD4EBCWopsTSingle OpLP23,373new